LLHZUSHH

Guest
Details From LLHZ - Herzelia
To USHH - Khanty Mansiysk
Flight Number -
Tags Decoded
Created
Modified
Stats Distance 2,252 nm / 4,171 km
Max Altitude 0 ft / 0 m
Waypoints 3
Social Downloads 0
Likes 0
Share VATSIM

Download

Looking for another format? Having issues loading an existing format? Contact us
Advertisement - Login to hide

Notes

Decoded

Route

KANER SOGNA RALEM

ID Type Via Altitude Latitude Longitude Leg Dist Tot Dist Heading (true) Name
O KANER FIX - 0 ft / 0 m 32.20839˚ 34.92829˚ - 0 nm - -
SOGNA FIX - 0 ft / 0 m 61.01667˚ 70.95000˚ 2226 nm 2226 nm 28° / 56° -
O RALEM FIX - 0 ft / 0 m 61.03333˚ 70.06667˚ 25 nm 2252 nm 273° / 272° -

Altitude Profile

Advertisement - Login to hide

Weather


0- 5 10 15 20 25 30 35+ Temperature / ° C

Clouds and Precipitation
Forecast for 2018-05-26 18:00 UTC. Updated an hour ago

Ground ~20,000 ft ~40,000 ft Winds

LLHZ

Details ICAO LLHZ
Name Herzelia
Region Israel
Timezone Asia/Jerusalem (UTC+3.0)
Stats Elevation 121 ft / 37 m (AMSL)
Location 32.180553° 34.834724°
Runways 1
Magnetic Variation 4.742° E

METAR

Not found

TAF

TAF LLHZ 261711Z 2618/2718 02007KT 9999 SCT015 PROB40 2700/2705 02006KT 7000 BKN012 BECMG 2706/2708 33014KT FEW018 BECMG 2715/2717 36007KT TX27/2712Z TN21/2703Z

Decode

Departure Runways

ID Width Length Bearing (true) Bearing (mag) Surface Threshold Offset Overrun Length
11 59 ft / 18 m 2,965 ft / 904 m 110.00° 105.26° Asphalt 229 ft / 70 m 66 ft / 20 m
29 59 ft / 18 m 2,965 ft / 904 m 290.00° 285.26° Asphalt 229 ft / 70 m 66 ft / 20 m

USHH

Details ICAO USHH (HMA)
Name KHANTY MANSIYSK
Region Russia
Timezone Asia/Yekaterinburg (UTC+5.0)
Stats Elevation 141 ft / 43 m (AMSL)
Location 61.028482° 69.086067°
Runways 1
Magnetic Variation 17.800° E

METAR

USHH 261800Z 00000MPS CAVOK 02/M05 Q1016 R06/010060 NOSIG RMK QFE759

Decode

TAF

TAF USHH 261700Z 2618/2718 20003MPS 9999 BKN020 TEMPO 2621/2624 VRB01MPS 3100 BR SCT005 BKN011 FM270300 22009G17MPS 9999 BKN020CB TEMPO 2706/2712 3100 -SHRA BKN011CB BECMG 2710/2712 32003G08MPS

Decode

Destination Runways

ID Width Length Bearing (true) Bearing (mag) Surface Threshold Offset Overrun Length
06 148 ft / 45 m 9,154 ft / 2,790 m 75.33° 57.53° Asphalt 0 ft / 0 m 195 ft / 59 m
24 148 ft / 45 m 9,154 ft / 2,790 m 255.38° 237.58° Asphalt 0 ft / 0 m 195 ft / 59 m

Approach Navaids

Runway Type Ident Frequency Range Bearing (true) Bearing (mag) Slope Elevation
06 Localiser IBD 111.90 MHz 18 nm / 33 km 75.47° 57.67° - 141 ft / 43 m (AMSL)
06 Glidescope IBD 111.90 MHz 10 nm / 19 km 75.36° 57.56° 3.00° 141 ft / 43 m (AMSL)
24 Localiser IZJ 110.10 MHz 18 nm / 33 km 255.37° 237.57° - 141 ft / 43 m (AMSL)
24 Glidescope IZJ 110.10 MHz 10 nm / 19 km 255.35° 237.56° 3.00° 141 ft / 43 m (AMSL)